"Time","Temp","Dewpoint","Humidity","Pressure","Direction","Speed","Gust","Precip","PrecipRate"
"00:04:59","71.8","68.1","88","29.86","162","1.9","5","0.00","0.00"
"00:09:59","71.6","67.9","88","29.86","167","1","3.5","0.00","0.00"
"00:14:56","71.5","67.8","88","29.86","167","0.7","3.5","0.00","0.00"
"00:19:56","71.3","67.9","88.8","29.86","151","1.1","4","0.00","0.00"
"00:24:56","71.2","67.8","89","29.86","157","1.1","3.5","0.00","0.00"
"00:29:56","71.1","67.7","89","29.86","141","1.2","4","0.00","0.00"
"00:34:56","71.1","67.7","89","29.86","130","0.2","1.2","0.00","0.00"
"00:39:59","71","67.6","89","29.86","130","0.9","3","0.00","0.00"
"00:44:59","70.9","67.5","89","29.86","145","1.9","4","0.00","0.00"
"00:49:56","70.8","67.4","89","29.85","157","1.3","3.5","0.00","0.00"
"00:54:56","70.7","67.3","89","29.85","148","1.6","6","0.00","0.00"
"00:59:56","70.6","67.4","89.8","29.85","177","1.5","5.8","0.00","0.00"
"01:04:59","70.5","67.4","90","29.85","189","1.1","4","0.00","0.00"
"01:09:59","70.3","67.2","90","29.85","174","0.8","3","0.00","0.00"
"01:14:57","70.1","67","90","29.85","160","1.5","4","0.00","0.00"
"01:19:58","70.1","67.1","90.4","29.85","155","1.1","3.5","0.00","0.00"
"01:24:58","69.9","67.2","91","29.85","155","1","4","0.00","0.00"
"01:29:58","69.8","67.1","91","29.85","164","0.6","3.5","0.00","0.00"
"01:34:58","69.7","67","91","29.85","164","0","1.2","0.00","0.00"
"01:39:57","69.6","66.9","91","29.85","164","0.1","1.2","0.00","0.00"
"01:44:57","69.5","66.8","91","29.86","164","0.3","1.2","0.00","0.00"
"01:49:57","69.4","66.7","91","29.86","164","0.2","1.2","0.00","0.00"
"01:54:57","69.4","66.8","91.4","29.86","164","0.5","2.3","0.00","0.00"
"01:59:56","69.3","66.7","91.5","29.86","163","0.6","3.5","0.00","0.00"
"02:04:56","69.2","66.8","92","29.85","159","1.7","5","0.00","0.00"
"02:09:57","69.2","66.8","92","29.85","154","1.7","5","0.00","0.00"
"02:14:56","69.1","66.7","92","29.85","123","1","4.6","0.00","0.00"
"02:19:56","69","66.6","92","29.85","123","0.6","3.5","0.00","0.00"
"02:24:55","69","66.6","92","29.85","123","0.6","2.3","0.00","0.00"
"02:29:59","68.9","66.5","92","29.85","124","0.8","2.3","0.00","0.00"
"02:34:59","68.8","66.4","92","29.85","125","0","1.2","0.00","0.00"
"02:39:58","68.7","66.3","92","29.85","125","0.7","3","0.00","0.00"
"02:44:58","68.7","66.3","92","29.86","141","0.7","3.5","0.00","0.00"
"02:49:58","68.7","66.3","92","29.86","141","0.6","3.5","0.00","0.00"
"02:54:58","68.7","66.3","92","29.86","141","1.1","3.5","0.00","0.00"
"02:59:58","68.8","66.4","92","29.86","141","0.9","3.5","0.00","0.00"
"03:04:58","68.8","66.4","92","29.86","141","0.2","2.3","0.00","0.00"
"03:09:56","68.8","66.4","92","29.86","141","0.3","2.3","0.00","0.00"
"03:14:58","68.8","66.1","91","29.86","141","0.5","2.3","0.00","0.00"
"03:19:59","68.8","66.1","91","29.86","158","0.9","3.5","0.00","0.00"
"03:24:59","68.8","66.1","91","29.86","163","0.6","2.3","0.00","0.00"
"03:29:59","68.8","66.1","91","29.86","163","0.5","2.3","0.00","0.00"
"03:34:57","68.8","66.1","91","29.86","163","0.4","2.3","0.00","0.00"
"03:39:59","68.8","66.1","91","29.86","163","0.4","2","0.00","0.00"
"03:44:57","68.8","66.1","91","29.86","163","1.7","3.5","0.00","0.00"
"03:49:57","68.7","65.9","90.7","29.86","162","0.5","3.5","0.00","0.00"
"03:54:57","68.7","65.6","90","29.86","162","1.3","4","0.00","0.00"
"03:59:57","68.6","65.5","90","29.86","162","1.2","3.5","0.00","0.00"
"04:04:57","68.5","65.4","90","29.86","162","0.6","2.3","0.00","0.00"
"04:09:59","68.4","65.4","90","29.86","162","0.3","2.3","0.00","0.00"
"04:14:58","68.3","65.3","90","29.86","162","1","2.3","0.00","0.00"
"04:19:58","68.1","65.2","90.1","29.86","162","1.6","3.5","0.00","0.00"
"04:24:58","68","65.3","91","29.86","161","1.5","4","0.00","0.00"
"04:29:59","67.8","65.1","91","29.86","161","0.6","3","0.00","0.00"
"04:34:59","67.6","64.9","91","29.86","161","0.2","1.2","0.00","0.00"
"04:39:59","67.4","64.8","91.1","29.86","161","0","0","0.00","0.00"
"04:44:59","67.3","64.9","92","29.86","161","0","0","0.00","0.00"
"04:49:59","67.1","64.7","92","29.86","161","0","0","0.00","0.00"
"04:54:56","67","64.6","92","29.86","161","0","0","0.00","0.00"
"04:59:56","66.8","64.4","92","29.86","161","0","1","0.00","0.00"
"05:04:56","66.6","64.5","93","29.86","161","0.5","2.3","0.00","0.00"
"05:09:56","66.5","64.4","92.9","29.86","160","0.4","2.3","0.00","0.00"
"05:14:56","66.3","63.9","92","29.86","161","0","0","0.00","0.00"
"05:19:56","66.2","64","92.9","29.86","161","0.2","2.3","0.00","0.00"
"05:24:57","66","64.1","93.9","29.86","161","0.5","2.3","0.00","0.00"
"05:29:58","65.8","64","94","29.86","161","0","0","0.00","0.00"
"05:34:59","65.7","63.9","94","29.86","161","0","0","0.00","0.00"
"05:39:59","65.6","63.8","94","29.86","161","0","0","0.00","0.00"
"05:44:56","65.5","63.7","94","29.86","161","0","0","0.00","0.00"
"05:49:57","65.3","63.5","94","29.86","161","0","0","0.00","0.00"
"05:54:58","65.2","63.4","94","29.86","161","0","0","0.00","0.00"
"05:59:56","65","63.2","94","29.86","161","0","0","0.00","0.00"
"06:04:57","64.9","63.1","94","29.86","161","0","0","0.00","0.00"
"06:09:59","64.8","63.1","94.5","29.86","161","0","1","0.00","0.00"
"06:14:59","64.7","62.9","94.2","29.86","138","0","1.2","0.00","0.00"
"06:19:58","64.5","63","94.8","29.86","9","0","0","0.00","0.00"
"06:24:58","64.5","63","95","29.86","9","0","0","0.00","0.00"
"06:29:58","64.5","63","95","29.86","9","0","0","0.00","0.00"
"06:34:57","64.6","63.4","96","29.86","9","0.1","1.2","0.00","0.00"
"06:39:56","64.9","63.7","96","29.86","9","0.2","1.2","0.00","0.00"
"06:44:57","65.1","64.2","96.7","29.86","9","0","0","0.00","0.00"
"06:49:56","65.4","64.5","96.9","29.86","9","0","0","0.00","0.00"
"06:54:56","65.7","64.5","96.2","29.86","9","0","0","0.00","0.00"
"06:59:56","65.9","64.8","96.1","29.86","9","0.6","3.5","0.00","0.00"
"07:04:56","66.2","65","96","29.85","102","1.3","3.5","0.00","0.00"
"07:09:57","66.4","65.1","95.5","29.85","121","1.6","3.5","0.00","0.00"
"07:14:56","66.6","65.1","95","29.85","167","1.9","4","0.00","0.00"
"07:19:59","66.9","65.4","95","29.85","181","1.8","4","0.00","0.00"
"07:24:58","67.3","65.8","95","29.85","235","2.2","6","0.00","0.00"
"07:29:58","67.6","66.1","95","29.85","235","1.3","3.5","0.00","0.00"
"07:34:57","68","66.5","94.9","29.85","230","1.6","4","0.00","0.00"
"07:39:56","68.3","66.5","94","29.85","254","1.6","3.5","0.00","0.00"
"07:44:55","68.5","66.5","93.3","29.85","199","2.2","5","0.00","0.00"
"07:49:59","68.7","66.6","93","29.85","191","1.7","7","0.00","0.00"
"07:54:59","68.9","66.7","92.5","29.85","198","2.4","6.9","0.00","0.00"
"07:59:57","69.2","67.1","92.8","29.85","234","2.2","5","0.00","0.00"
"08:04:57","69.6","67.3","92.4","29.85","223","1.5","4","0.00","0.00"
"08:09:57","70","67.4","91.4","29.85","174","2.3","5","0.00","0.00"
"08:14:56","70.4","67.5","90.9","29.85","181","1.8","6","0.00","0.00"
"08:19:59","70.8","67.7","90","29.85","206","1.8","5","0.00","0.00"
"08:24:58","71.1","67.9","89.8","29.85","201","1.6","4","0.00","0.00"
"08:29:58","71.2","68","89.5","29.86","232","1.5","3.5","0.00","0.00"
"08:34:58","71.4","68.2","89.4","29.86","232","1.8","5","0.00","0.00"
"08:39:56","71.6","68.3","89.1","29.86","211","1.5","3.5","0.00","0.00"
"08:44:56","72","68.1","87.8","29.86","211","0.2","2.3","0.00","0.00"
"08:49:56","72.3","68.6","88.2","29.86","211","0","0","0.00","0.00"
"08:54:56","72.6","68.6","87.3","29.86","264","0.1","3.5","0.00","0.00"
"08:59:59","72.9","68.9","87.2","29.86","206","1.9","3.5","0.00","0.00"
"09:04:56","73.2","68.8","86.3","29.86","192","0.8","3.5","0.00","0.00"
"09:09:57","73.4","69.2","86.5","29.86","206","0.8","3.5","0.00","0.00"
"09:14:56","73.6","68.9","85.1","29.86","189","1","4","0.00","0.00"
"09:19:56","73.7","68.9","85.1","29.86","179","1.1","3.5","0.00","0.00"
"09:24:56","73.8","69.2","85.6","29.86","184","1.6","3.5","0.00","0.00"
"09:29:59","74.3","69.8","86","29.86","150","1.2","3.5","0.00","0.00"
"09:34:59","74.8","69.8","84.6","29.86","168","1.3","4","0.00","0.00"
"09:39:57","74.9","69.4","83.2","29.86","187","1.4","4","0.00","0.00"
"09:44:56","74.9","69.4","83.2","29.86","164","2.8","5","0.00","0.00"
"09:49:56","74.7","69.4","83.7","29.86","168","0.5","5","0.00","0.00"
"09:54:56","74.7","69.5","84","29.86","192","0.6","4.6","0.00","0.00"
"09:59:59","74.9","69.7","83.8","29.86","202","0.1","3","0.00","0.00"
"10:04:59","75","69.4","82.7","29.86","201","0.3","3.5","0.00","0.00"
"10:09:56","75.1","69.4","82.6","29.86","186","0","0","0.00","0.00"
"10:14:58","75.2","69.9","83.5","29.86","186","0","1.2","0.00","0.00"
"10:19:57","75.3","69.5","82.3","29.86","186","0","0","0.00","0.00"
"10:24:57","75.5","70.1","83.4","29.86","186","0","0","0.00","0.00"
"10:29:56","75.6","70.1","83","29.86","186","0","0","0.00","0.00"
"10:34:57","75.8","70.2","83","29.86","186","0","0","0.00","0.00"
"10:39:56","75.8","70","82.3","29.86","186","0","0","0.00","0.00"
"10:44:59","75.9","70.4","82.8","29.86","186","0","0","0.00","0.00"
"10:49:58","76.2","70.7","83","29.86","182","0.1","2.3","0.00","0.00"
"10:54:58","76.8","71.2","83","29.86","181","0","2.3","0.00","0.00"
"10:59:58","77.6","71.5","81.6","29.86","180","0","2.3","0.00","0.00"
"11:04:58","78.3","71.6","79.9","29.86","190","1.4","5","0.00","0.00"
"11:09:59","78.7","71.7","79.2","29.86","188","2.2","4","0.00","0.00"
"11:14:56","78.9","71","76.7","29.86","205","1.9","6","0.00","0.00"
"11:19:58","79.2","71.5","77.3","29.86","209","1","3.5","0.00","0.00"
"11:24:56","79.3","71.2","76.3","29.86","231","1.3","3.5","0.00","0.00"
"11:29:59","79.5","72.2","78.5","29.86","202","1.1","5","0.00","0.00"
"11:34:58","79.8","72","77.2","29.85","195","0","1.2","0.00","0.00"
"11:39:59","80","71.5","75.2","29.85","190","0","0","0.00","0.00"
"11:44:58","80.2","72.4","77.2","29.86","252","1.3","4","0.00","0.00"
"11:49:56","80.7","72.5","76.3","29.86","291","0.9","5","0.00","0.00"
"11:54:58","80.6","71.4","73.8","29.86","289","2.1","5","0.00","0.00"
"11:59:56","80.5","71.9","75.1","29.86","284","0.3","7","0.00","0.00"
"12:04:59","81","71.9","73.8","29.86","214","2.2","6.9","0.00","0.00"
"12:09:59","81.5","72.1","73.2","29.86","212","2.7","5.8","0.00","0.00"
"12:14:56","81.7","72.4","73.3","29.86","294","1.3","4","0.00","0.00"
"12:19:59","81.9","71.9","71.7","29.85","247","1.3","6","0.00","0.00"
"12:24:57","81.8","71.7","71.5","29.85","325","2.2","5.8","0.00","0.00"
"12:29:59","81.6","71.3","71.1","29.85","268","0.6","4","0.00","0.00"
"12:34:58","81.5","71.1","70.9","29.84","358","0.9","5","0.00","0.00"
"12:39:59","81.8","71.6","71.4","29.84","334","1.8","6","0.00","0.00"
"12:44:57","82.3","72.7","72.9","29.84","241","1.4","6","0.00","0.00"
"12:49:56","82.9","74.1","74.8","29.84","224","2.1","5.8","0.00","0.00"
"12:54:59","83.4","71.9","68.4","29.84","301","1.6","5","0.00","0.00"
"12:59:56","83.6","71.5","67.1","29.84","237","3","9.2","0.00","0.00"
"13:04:59","83.8","71.4","66.4","29.83","223","2.8","6","0.00","0.00"
"13:09:59","83.9","72.4","68.3","29.83","224","1.4","3.5","0.00","0.00"
"13:14:57","84.3","72","66.7","29.83","229","0.5","3.5","0.00","0.00"
"13:19:59","84.3","71","64.6","29.82","229","2","5","0.00","0.00"
"13:24:58","84.2","72.4","67.8","29.82","218","2.5","6","0.00","0.00"
"13:29:55","84.4","70.3","62.9","29.82","241","1.7","5","0.00","0.00"
"13:34:56","84.7","70.1","61.9","29.81","245","2.5","6","0.00","0.00"
"13:39:58","85.1","71.1","63.2","29.81","214","3.3","10","0.00","0.00"
"13:44:57","85.4","71.2","62.9","29.81","244","2.7","6","0.00","0.00"
"13:49:59","85.1","69.3","59.3","29.81","307","2.3","6","0.00","0.00"
"13:54:58","84.8","70.2","61.6","29.81","222","1.7","5","0.00","0.00"
"13:59:56","85.1","69.7","60","29.81","272","2.1","6","0.00","0.00"
"14:04:56","85.4","68.5","57.2","29.81","320","2.2","6","0.00","0.00"
"14:09:56","85.2","69.5","59.5","29.81","310","2.1","8.1","0.00","0.00"
"14:14:57","84.9","69.7","60.5","29.81","240","1.3","7","0.00","0.00"
"14:19:55","85.4","67.7","55.6","29.81","294","2.1","6.9","0.00","0.00"
"14:24:58","86.1","68.3","55.6","29.81","308","2.2","6","0.00","0.00"
"14:29:57","86.6","68.6","55.2","29.81","237","3.5","8.1","0.00","0.00"
"14:34:57","86.5","66.9","52.3","29.80","213","3.2","7","0.00","0.00"
"14:39:56","86","68.2","55.4","29.80","263","2.2","6","0.00","0.00"
"14:44:56","86.2","68.5","55.6","29.80","225","2.4","5","0.00","0.00"
"14:49:59","86.4","67.1","52.9","29.80","256","2.5","6","0.00","0.00"
"14:54:58","86.2","68.6","55.8","29.80","260","1.6","6","0.00","0.00"
"14:59:58","86.2","68.1","54.9","29.80","278","3","7","0.00","0.00"
"15:04:57","86.2","67","53","29.80","289","3","9.2","0.00","0.00"
"15:09:57","86.4","68","54.5","29.80","251","2.1","5","0.00","0.00"
"15:14:59","86.7","67.8","53.6","29.80","312","2.8","10","0.00","0.00"
"15:19:58","86.8","68","53.7","29.78","268","3.6","10.4","0.00","0.00"
"15:24:58","86.9","68.5","54.5","29.78","265","2.6","6","0.00","0.00"
"15:29:57","87.2","68.1","53.2","29.78","259","2.4","5","0.00","0.00"
"15:34:57","87.5","69.1","54.5","29.78","185","2.3","5","0.00","0.00"
"15:39:57","87.9","68.7","53.3","29.78","245","2.8","7","0.00","0.00"
"15:44:58","87.8","68.2","52.5","29.78","258","2.3","6.9","0.00","0.00"
"15:49:59","87.9","68.6","53","29.78","228","2.5","7","0.00","0.00"
"15:54:56","87.9","69.4","54.4","29.78","243","2.9","5.8","0.00","0.00"
"15:59:56","88","68.7","53","29.78","338","1.6","6","0.00","0.00"
"16:04:57","88.3","68.4","52","29.77","348","1.4","6","0.00","0.00"
"16:09:57","88.5","69","52.7","29.77","201","3.9","7","0.00","0.00"
"16:14:56","88.3","68.8","52.7","29.77","210","3.2","10.4","0.00","0.00"
"16:19:58","88.2","68.1","51.5","29.76","227","2.4","6.9","0.00","0.00"
"16:24:58","88.3","69.9","54.7","29.76","242","2.3","4","0.00","0.00"
"16:29:59","88.3","68","51.3","29.76","321","3.6","7","0.00","0.00"
"16:34:55","87.9","67","50.3","29.75","294","2.7","7","0.00","0.00"
"16:39:56","87.9","69.2","54.1","29.75","221","2.1","4.6","0.00","0.00"
"16:44:56","88.2","68.9","53","29.75","243","3.2","6","0.00","0.00"
"16:49:57","88.2","68.6","52.3","29.75","216","2","4","0.00","0.00"
"16:54:59","88.3","68.2","51.7","29.75","192","2.6","6","0.00","0.00"
"16:59:57","88.4","68.6","52.1","29.75","217","2.5","7","0.00","0.00"
"17:04:57","88.5","67.9","50.6","29.75","213","2.5","5","0.00","0.00"
"17:09:57","88.6","68","50.7","29.75","227","2.4","6","0.00","0.00"
"17:14:57","88.6","67.3","49.6","29.75","244","2","5","0.00","0.00"
"17:19:56","88.6","67.6","50.1","29.75","208","1.8","4","0.00","0.00"
"17:24:56","88.7","67.4","49.6","29.75","259","2.5","5","0.00","0.00"
"17:29:56","88.7","66.6","48.2","29.75","255","2.3","5","0.00","0.00"
"17:34:59","88.7","66.6","48.2","29.75","239","2","4","0.00","0.00"
"17:39:57","88.6","66.7","48.4","29.75","200","2.6","6","0.00","0.00"
"17:44:57","88.6","67.1","49.1","29.75","200","1.7","4.6","0.00","0.00"
"17:49:56","88.6","66.6","48.2","29.74","215","1.4","3.5","0.00","0.00"
"17:54:59","88.6","66.3","47.8","29.74","195","3.2","7","0.00","0.00"
"17:59:59","88.5","67","49.1","29.74","185","1.8","4.6","0.00","0.00"
"18:04:58","88.5","66.8","48.9","29.74","184","2","4","0.00","0.00"
"18:09:59","88.4","68","51.1","29.74","194","1.6","4","0.00","0.00"
"18:14:57","88.1","66.7","49.4","29.74","218","1.9","4","0.00","0.00"
"18:19:56","87.6","67.2","51","29.73","191","2.9","7","0.00","0.00"
"18:24:59","87.2","66.1","49.8","29.73","206","1.5","5","0.00","0.00"
"18:29:58","86.8","66.8","51.6","29.73","209","1.2","4","0.00","0.00"
"18:34:57","86.5","66.5","51.6","29.72","213","2.5","5","0.00","0.00"
"18:39:56","86.2","66.7","52.4","29.72","203","1.9","4","0.00","0.00"
"18:44:59","86","66.9","53","29.72","199","1.6","4","0.00","0.00"
"18:49:58","85.7","67.1","53.9","29.72","192","1.6","4","0.00","0.00"
"18:54:57","85.6","67.1","54.2","29.72","193","1.3","3.5","0.00","0.00"
"18:59:57","85.3","67.5","55.3","29.72","193","0.4","2.3","0.00","0.00"
"19:04:57","85.1","67.6","55.8","29.72","193","0.7","3.5","0.00","0.00"
"19:09:58","84.9","68.2","57.4","29.72","193","0.8","3.5","0.00","0.00"
"19:14:57","84.6","68","57.8","29.72","193","1.3","3.5","0.00","0.00"
"19:19:56","84","67.7","58.1","29.72","192","1.8","3.5","0.00","0.00"
"19:24:59","83.5","66.9","57.6","29.72","192","1.1","2.3","0.00","0.00"
"19:29:59","83.1","66.4","57.3","29.72","192","1.2","3.5","0.00","0.00"
"19:34:59","82.8","66.5","58.1","29.72","192","0.5","3","0.00","0.00"
"19:39:58","82.5","66.7","59.1","29.72","192","0.8","2.3","0.00","0.00"
"19:44:58","82.2","66.1","58.3","29.72","192","0.3","1.2","0.00","0.00"
"19:49:57","82","65.9","58.2","29.72","192","0.2","2.3","0.00","0.00"
"19:54:57","81.8","66.3","59.5","29.72","192","0.2","2.3","0.00","0.00"
"19:59:57","81.5","66.2","59.7","29.72","192","0.2","2","0.00","0.00"
"20:04:57","81.2","66.7","61.6","29.72","192","0.3","1.2","0.00","0.00"
"20:09:58","80.7","66.4","61.8","29.72","192","0.1","1.2","0.00","0.00"
"20:14:57","80.3","67.7","65.5","29.72","192","0.1","1.2","0.00","0.00"
"20:19:56","79.6","68","67.8","29.72","192","0.7","2.3","0.00","0.00"
"20:24:55","78.9","68.2","70","29.72","192","0.8","2.3","0.00","0.00"
"20:29:57","78.2","68.8","73","29.73","192","0.4","1.2","0.00","0.00"
"20:34:58","77.4","69.1","75.7","29.73","192","1.1","2.3","0.00","0.00"
"20:39:59","76.9","69.1","76.7","29.73","192","0.8","2.3","0.00","0.00"
"20:44:58","76.9","67.3","72.3","29.74","182","5.8","17","0.00","0.00"
"20:49:56","77.8","66.3","67.8","29.74","183","5","11.5","0.00","0.00"
"20:54:55","78.1","64.3","62.6","29.74","188","3.6","8.1","0.00","0.00"
"20:59:58","78","64","62.2","29.74","177","3","6","0.00","0.00"
"21:04:59","77.7","64.1","63","29.73","185","2.5","5","0.00","0.00"
"21:09:56","77.4","64.3","64","29.73","191","2.1","5","0.00","0.00"
"21:14:57","77.1","64.4","65","29.73","186","1.6","3.5","0.00","0.00"
"21:19:59","76.8","64.7","66.2","29.72","184","2","4","0.00","0.00"
"21:24:58","76.5","66.1","70.5","29.72","182","1.8","5","0.01","0.00"
"21:29:56","75.7","66.7","73.7","29.72","198","0.8","2.3","0.01","0.01"
"21:34:59","74.8","66.9","76.5","29.72","174","2","7","0.04","0.03"
"21:39:59","74","65.2","74.1","29.72","150","3.2","9","0.13","0.11"
"21:44:57","73.3","66.7","79.8","29.73","330","3.2","11.5","0.18","0.17"
"21:49:58","71.9","67.1","84.9","29.73","221","2.7","12","0.18","0.18"
"21:54:57","70.8","67.1","87.9","29.73","315","2.3","10","0.20","0.19"
"21:59:56","70.1","66.7","89","29.82","317","3.6","9.2","0.29","0.27"
"22:04:56","69","65.2","87.4","29.82","20","5.3","15","0.40","0.38"
"22:09:57","67.6","63.8","87.5","29.82","7","1.5","5.8","0.44","0.43"
"22:14:58","66.7","63.4","89.1","29.85","262","2.2","5","0.49","0.46"
"22:19:57","66","63.5","91.6","29.85","178","1.4","4.6","0.69","0.66"
"22:24:59","65.8","63.6","92.8","29.85","76","0.9","4","0.80","0.76"
"22:29:58","65.5","63.4","93","29.85","43","0.8","3.5","0.86","0.84"
"22:34:57","65.4","63.5","93.9","29.82","44","0.6","2.3","0.93","0.87"
"22:39:57","65.3","63.5","94","29.82","61","1","3.5","0.97","0.89"
"22:44:57","65.2","63.5","94.3","29.82","175","1.7","4","0.98","0.84"
"22:49:56","65.1","63.6","95","29.79","187","0.8","2.3","0.98","0.80"
"22:54:59","65.1","63.6","95","29.79","187","0.1","2","0.98","0.80"
"22:59:59","65.1","63.7","95.2","29.80","188","0","2.3","0.98","0.78"
"23:04:57","65.2","64","96","29.80","188","0","0","0.98","0.69"
"23:09:58","65.2","64","96","29.80","188","0","0","0.98","0.58"
"23:14:56","65.3","64.1","96","29.80","187","0.3","2.3","0.98","0.54"
"23:19:56","65.4","64.2","96","29.80","188","0.1","1.2","0.98","0.49"
"23:24:59","65.5","64.3","96","29.80","188","0.5","1.2","0.98","0.29"
"23:29:58","65.5","64.3","96","29.81","188","0","1.2","0.98","0.18"
"23:34:56","65.6","64.4","96","29.81","188","0","0","0.98","0.12"
"23:39:59","65.6","64.4","96","29.81","188","0","0","0.98","0.05"
"23:44:58","65.6","64.5","96.2","29.81","188","0","0","0.99","0.01"
"23:49:57","65.8","64.7","96.6","29.80","188","0","0","0.99","0.01"
"23:54:56","65.8","64.9","96.9","29.80","188","0","0","0.99","0.01"
"23:59:59","65.8","64.9","97","29.81","188","0","0","0.99","0.01"
